Regional Weather Roundup
Issued by NWS

Home | Current Version | Previous Version | Graphics & Text | Print | Product List | Glossary On
Versions: 1 2 3 4 5 6 7 8 9 10 11 12 13 14 15 16 17 18 19 20 21 22 23 24 25 26 27 28 29 30 31 32 33 34 35 36 37 38 39 40 41 42 43 44 45 46 47 48 49 50
409
ASUS43 KIND 251109
RWRIN

WEATHER ROUNDUP FOR INDIANA
NATIONAL WEATHER SERVICE INDIANAPOLIS IN
700 AM EDT WED MAY 25 2016

NOTE: "FAIR" INDICATES FEW OR NO CLOUDS BELOW 12,000 FEET WITH NO
SIGNIFICANT WEATHER AND/OR OBSTRUCTIONS TO VISIBILITY.

* - STATION DOES NOT REPORT WEATHER SUCH AS PRECIPITATION OR FOG.

+ - STATION NOT QUALITY CONTROLLED BY THE NATIONAL WEATHER SERVICE.
    USE DATA WITH CAUTION...ESPECIALLY DEWPOINT AND RELATIVE
    HUMIDITY OBSERVATIONS.

INZ001>003-010>013-019-020-251200-
NORTHWEST INDIANA

CITY           SKY/WX    TMP DP  RH WIND       PRES   REMARKS
GARY /AIRPORT/ PTCLDY    66  64  94 SE7       29.99F
KNOX *+        PTCLDY    63  48  59 SE5       30.02S
LA PORTE +     CLEAR     62  58  87 CALM      30.02F
MICHIGAN CITY+ CLEAR     64  55  72 SE3       30.01F
MONTICELLO +   PTCLDY    65  53  66 SE5       30.01F
RENSSELAER +   CLEAR     63  55  77 CALM      30.01S
VALPARAISO     CLEAR     61  55  81 NE3       30.01S

$$

LMZ046-743>745-251200-
SOUTHERN LAKE MICHIGAN

STATION/POSITION TIME  TEMP    WIND        PRES    WAVE
                       AIR SEA DIR/SP/G            HT
                 (UTC) (F)     (DEG/KT/KT) (MB)    (FT)
BURNS HARBOR     1000   69     180/  7/ 12 1015.9F
MICHIGAN CITY    1000   69     140/  9/ 12   N/A
5NW MICH CITY    1100   63 57  150/  4/  6   N/A     0

$$

INZ004-005-014>016-021>024-251200-
NORTH CENTRAL INDIANA

CITY           SKY/WX    TMP DP  RH WIND       PRES   REMARKS
ELKHART        CLEAR     61  59  94 CALM      30.03
GOSHEN         CLEAR     61  53  75 SE5       30.04F
LOGANSPORT +   MOCLDY    59  55  88 SE6       30.04F
PERU/GRISSOM   CLOUDY    62  57  83 SE6       30.03F
ROCHESTER +    PTCLDY    66  59  77 SE3       30.04F
SOUTH BEND     CLEAR     63  54  72 S3        30.03F
WARSAW +       PTCLDY    59  54  82 CALM      30.05F

$$

INZ006>009-017-018-025>027-251200-
NORTHEAST INDIANA

CITY           SKY/WX    TMP DP  RH WIND       PRES   REMARKS
ANGOLA *+      CLEAR     55  55 100 CALM      30.06F
AUBURN +       CLOUDY    59  52  77 CALM      30.07F
FORT WAYNE     MOCLDY    61  53  75 E3        30.07S
HUNTINGTON +   CLOUDY   N/A N/A N/A CALM      30.05F

$$

INZ028-029-035-036-043>045-051>053-251200-
WEST CENTRAL INDIANA

CITY           SKY/WX    TMP DP  RH WIND       PRES   REMARKS
CRAWFORDSVL +  CLOUDY    61  57  86 S5        30.04R
GREENCASTLE +  CLOUDY    63  59  88 CALM      30.05S
LAFAYETTE      CLOUDY    63  56  78 SE3       30.02S
TERRE HAUTE    PTCLDY    61  57  87 CALM      30.05R

$$

INZ030>032-037>040-046>048-054>057-064-065-251200-
CENTRAL INDIANA

CITY           SKY/WX    TMP DP  RH WIND       PRES   REMARKS
CP ATTERBURY + MOCLDY    63  57  82 CALM      30.08R
COLUMBUS       PTCLDY    63  59  88 SE5       30.08
FISHERS *+     CLOUDY    64  59  82 SE6       30.06S
FRANKFORT +      N/A     63  50  61 CALM      30.06R
GREENWOOD *+   CLOUDY    66  57  72 SE8       30.07S
INDIANAPOLIS   CLOUDY    66  57  72 SE9       30.04S
-EAGLE CREEK   CLOUDY    67  57  70 SE3       30.05S
KOKOMO *+      MOCLDY    63  54  72 S7        30.05S
MARION +       CLOUDY    64  55  73 S5        30.07R
SHELBYVILLE    CLOUDY    68  57  68 S8        30.07R
ZIONSVILLE +   MOCLDY    64  57  78 SE3       30.06S

$$

INZ033-034-041-042-049-050-058-059-251200-
EAST CENTRAL INDIANA

CITY           SKY/WX    TMP DP  RH WIND       PRES   REMARKS
MUNCIE         CLOUDY    67  54  63 S7        30.07S

$$

INZ060-061-067>069-081>083-085>088-251200-
SOUTHWEST INDIANA

CITY           SKY/WX    TMP DP  RH WIND       PRES   REMARKS
EVANSVILLE     CLOUDY    64  59  83 CALM      30.06R
HUNTINGBURG *+ CLOUDY    64  55  72 SE6       30.07R
WASHINGTON +   CLOUDY    63  60  90 SE5       30.05R

$$

INZ062-063-066-070>080-084-089>092-251200-
SOUTH CENTRAL AND SOUTHEAST INDIANA

CITY           SKY/WX    TMP DP  RH WIND       PRES   REMARKS
BEDFORD +      PTCLDY    64  63  94 SE3       30.07R
BLOOMINGTON    PTCLDY    63  56  78 S5        30.06R
MADISON *+     CLOUDY    64  54  68 SE5       30.11R
NORTH VERNON + PTCLDY    66  61  82 CALM      30.09S
SEYMOUR +      CLOUDY    66  59  77 SE6       30.08R

$$





USA.gov is the U.S. government's official web portal to all federal, state and local government web resources and services.